Snowfall_Accumulation
0.0 0.0 0.0 0.0 0.0 0.0 0.0 0.0 0.0 0.0 0.0 0.0 0.0 0.0 0.0 0.0 0.0 0.0 0.0 0.0 0.0 0.0
0.6 0.8 0.9 0.0 0.0 0.0 0.0 0.0 0.0 0.0 0.0 0.0 0.0 0.0 0.0 0.0 0.0 0.0 0.0 0.0 0.0 0.0
0.9 1.1 1.0 1.1 0.0 0.0 0.6 0.0 0.0 0.0 0.0 0.0 0.0 0.0 0.0 0.0 0.0 0.0 0.0 0.0 0.0 0.0
0.5 0.2 1.0 0.8 0.5 0.5 0.0 0.0 1.0 0.0 0.0 0.0 0.0 0.0 0.0 0.0 0.0 0.0 0.0 0.0 0.0 0.0
1.3 0.9 0.2 0.9 0.7 0.5 0.0 0.0 0.0 1.7 0.0 0.0 0.0 0.0 0.0 0.0 0.0 0.0 0.0 0.0 0.0 0.0
0.9 1.2 0.6 0.0 0.0 0.8 0.7 0.0 1.3 1.9 1.9 0.0 0.0 0.0 0.0 0.0 0.0 0.0 0.0 0.0 0.0 0.0
0.4 0.4 0.4 0.1 0.0 1.5 1.0 0.4 0.8 1.0 1.4 1.0 0.0 0.0 0.0 0.0 0.0 0.0 0.0 0.0 0.0 0.0
0.0 0.5 0.2 0.0 0.0 0.0 1.6 1.2 0.4 1.0 0.9 0.9 0.0 0.0 0.0 0.0 0.0 0.0 0.0 0.0 0.7 0.7
0.0 0.0 0.6 0.2 0.5 0.1 0.1 1.1 0.0 1.1 0.8 0.8 0.0 0.0 0.0 0.0 0.1 0.1 0.9 1.1 2.2 1.7
0.2 0.0 0.0 0.3 0.3 0.4 0.7 0.9 0.3 2.1 2.0 0.8 0.0 0.0 0.0 0.0 0.5 2.6 3.8 3.1 3.1 1.8
0.6 0.0 0.0 0.3 0.3 0.2 0.2 1.6 1.1 0.8 0.7 3.6 3.5 3.0 2.3 3.8 3.9 3.1 3.3 2.4 1.9 0.8
0.1 0.0 0.0 0.8 0.5 2.1 3.1 5.6 5.7 7.3 7.9 6.3 5.3 0.8 1.8 2.1 1.8 1.7 1.1 0.3 0.0 0.0
1.0 2.8 5.2 2.5 1.9 6.8 6.0 3.9 5.2 5.5 4.8 3.1 2.5 0.3 1.2 0.7 0.3 0.1 0.3 0.1 0.0 0.0
2.5 2.8 3.5 4.8 4.9 4.8 5.3 5.0 4.2 3.0 1.6 0.0 0.0 0.0 0.0 0.0 0.0 0.0 0.4 0.1 0.0 0.1